SCP
0 0 0 0 0 0 0 0 0 0 0 0 0 0 0 0 0 0 0 0 0 0 0 1 1 1 1 1 0 1 1 1 1 0 0 0 0 0 0 0 0 0 0
0 0 0 0 0 0 0 -0 0 0 0 0 0 0 0 0 0 0 0 0 0 1 1 1 1 1 0 0 1 1 1 1 1 1 0 0 0 0 0 0 0 0 0
0 0 0 0 0 0 0 0 0 0 0 0 0 0 0 0 1 1 1 1 0 0 1 2 1 0 1 1 1 1 1 1 1 1 0 0 0 0 0 0 0 0 0
0 0 0 0 0 0 0 0 0 0 0 0 0 0 0 0 0 0 0 0 1 0 0 0 0 0 0 1 1 1 1 0 0 0 1 1 1 0 0 0 0 0 0
0 0 0 0 0 0 0 0 0 0 0 0 0 0 0 0 0 0 0 0 0 0 0 0 0 1 1 1 1 1 1 0 0 0 1 0 0 0 0 0 0 0 0
0 0 0 0 0 0 0 0 0 0 0 0 0 0 0 0 0 0 0 0 0 0 0 0 0 0 0 1 1 1 1 1 1 0 0 1 0 0 0 0 0 0 0
0 0 0 0 0 0 0 0 0 0 0 0 0 0 0 0 0 0 0 0 0 0 0 0 0 0 0 0 0 1 1 1 1 0 0 0 0 0 0 0 0 0 0
0 0 0 0 0 0 0 0 0 0 0 0 0 0 0 0 0 0 0 0 0 0 0 0 0 0 0 0 0 0 1 0 1 1 1 0 0 0 0 0 0 0 0
0 0 0 0 0 -0 -0 -0 -0 0 0 0 0 0 0 0 0 0 0 0 0 0 0 0 0 0 0 0 0 0 0 0 0 1 1 1 0 0 0 0 0 0 0
0 0 0 0 0 -0 0 -0 -0 0 -0 0 -0 0 0 0 0 0 0 0 0 0 0 0 0 0 0 0 0 0 0 0 0 0 0 0 0 1 0 0 0 0 0
0 0 0 0 0 0 0 0 0 0 0 0 0 0 0 0 0 0 0 0 0 0 0 0 0 0 0 0 0 0 0 0 0 0 0 0 0 0 1 1 0 0 0
0 0 0 0 0 0 0 0 0 0 0 0 0 0 0 0 0 0 0 0 0 0 0 0 0 0 0 0 0 0 0 0 0 0 0 0 0 0 0 0 0 0 0
0 0 0 0 0 0 0 0 0 0 0 0 0 0 0 0 0 0 0 0 0 0 -0 0 0 0 0 0 0 0 0 0 0 0 0 0 0 0 0 0 0 0 0
0 0 0 0 0 0 0 0 0 0 0 0 0 0 0 0 0 0 0 0 0 0 0 -0 0 0 0 0 0 0 0 0 0 0 0 0 0 0 0 0 0 0 0
0 0 0 0 0 0 0 0 0 0 0 0 0 0 0 0 0 0 0 0 0 0 0 0 -0 0 0 0 0 0 0 0 0 0 0 0 0 0 0 0 0 0 0
0 0 0 0 0 0 0 0 0 0 0 0 0 0 0 0 0 0 0 0 0 0 0 0 0 0 0 0 0 0 0 0 0 0 0 0 0 0 0 0 0 0 0
0 0 0 0 0 0 0 0 0 0 0 0 0 0 0 0 0 0 0 0 0 0 0 0 0 0 0 0 0 0 0 0 0 0 0 0 0 0 0 0 0 0 0
0 0 0 0 0 0 0 0 0 0 0 0 0 0 0 0 0 0 0 0 0 0 0 0 0 0 0 0 0 0 0 0 0 0 0 0 0 0 0 0 0 0 0
0 0 0 0 0 0 0 0 0 0 0 0 0 0 0 0 0 0 0 0 0 0 0 0 0 0 -0 -0 0 0 0 0 0 0 0 0 0 0 0 0 0 0 0
0 0 0 0 0 0 0 0 0 0 0 0 0 0 0 0 0 0 0 0 0 0 0 0 0 0 0 0 0 -0 0 0 0 0 0 0 0 0 0 0 0 0 0
0 0 0 0 0 0 0 0 0 0 0 0 0 0 0 0 0 0 0 0 0 0 0 0 0 0 0 0 0 0 0 0 0 0 0 0 0 0 0 0 0 0 0
0 0 0 0 0 0 0 0 0 0 0 0 0 0 0 0 0 0 0 0 0 0 0 0 0 0 0 0 0 0 0 0 -0 0 0 0 0 0 0 0 0 0 0
0 0 0 0 0 0 0 0 0 0 0 0 0 0 0 0 0 0 0 0 0 0 0 0 0 0 0 0 0 0 0 0 0 0 0 0 0 0 0 0 0 0 0
0 0 0 0 0 0 0 0 0 0 0 0 0 0 0 0 0 0 0 0 0 0 0 0 0 0 0 0 0 0 0 0 0 0 -0 -0 0 0 0 0 0 0 0
0 0 0 0 0 0 0 0 0 0 0 0 0 0 0 0 0 0 0 0 0 0 0 0 0 0 0 0 0 0 0 0 -0 0 0 -0 0 0 0 0 0 0 0
0 0 0 0 0 0 0 0 0 0 0 0 0 0 0 0 0 0 0 0 0 0 0 0 0 0 0 0 0 0 0 0 0 0 0 0 0 0 0 0 0 0 0
Wind_Speed_500mb
14 21 29 34 34 35 37 40 41 42 42 40 39 39 39 40 42 44 43 43 39 34 33 32 35 42 39 28 41 31 33 29 31 28 27 25 23 24 26 29 31 33 33
20 26 33 38 39 41 46 48 50 49 47 48 49 50 51 46 44 42 41 41 35 30 31 27 31 34 33 44 41 34 32 29 34 32 31 31 28 25 27 29 32 33 33
27 35 40 43 44 42 39 38 38 40 42 43 43 43 43 38 40 43 45 44 38 36 37 36 26 21 29 34 35 35 38 38 38 35 32 35 36 31 29 29 31 33 35
34 37 36 32 30 31 32 34 35 34 34 35 35 32 32 29 24 24 26 27 28 29 31 35 41 40 40 42 40 43 49 47 44 38 36 37 41 38 36 34 33 32 35
22 23 25 26 28 31 33 34 35 37 38 34 30 24 15 14 12 15 16 15 14 16 23 23 29 34 37 40 45 40 38 39 40 46 40 41 43 40 42 40 39 35 35
21 24 25 26 28 31 32 33 34 36 38 36 32 15 11 16 17 18 20 22 25 26 24 26 25 27 26 30 36 29 30 41 46 45 44 45 43 42 43 44 44 41 38
23 23 27 29 33 35 36 36 37 41 43 43 35 24 15 15 18 24 26 24 25 27 27 23 21 25 27 27 27 35 32 31 34 41 41 39 40 42 42 44 47 45 44
27 28 30 31 31 31 32 34 39 41 42 45 45 28 21 10 23 23 30 32 30 28 23 21 19 21 20 25 26 26 29 30 33 36 36 38 37 37 40 46 47 46 47
26 28 30 32 32 33 35 38 41 43 43 39 40 33 18 21 49 28 31 35 35 32 26 22 22 22 21 21 26 34 37 38 37 40 44 43 41 37 37 39 46 49 50
24 26 28 30 32 34 38 41 42 46 44 43 40 29 21 27 32 32 51 45 42 37 30 25 24 20 18 16 15 19 26 31 40 46 48 49 46 45 43 43 45 49 51
20 21 22 24 25 27 31 32 35 38 38 35 38 41 39 34 32 34 50 62 51 46 36 31 29 23 22 22 21 19 21 24 27 31 35 42 44 45 43 44 46 49 50
16 18 16 18 23 27 30 32 35 36 35 34 32 33 35 39 42 39 42 48 53 51 46 39 32 33 30 29 28 31 30 31 30 31 31 33 34 40 42 44 43 39 42
12 17 16 20 26 29 30 31 33 36 38 36 31 34 37 40 40 41 41 46 51 55 51 48 44 41 40 39 36 35 33 35 32 32 30 30 29 29 30 35 39 39 39
14 14 18 24 30 34 35 34 34 33 36 25 33 37 43 41 38 40 39 40 49 48 51 55 47 47 49 47 42 38 32 30 32 32 29 25 23 23 25 27 30 30 40
13 17 23 28 32 33 37 34 36 32 28 35 37 41 40 36 42 44 42 35 32 32 47 47 49 43 43 42 36 33 31 29 31 30 26 20 23 24 20 19 23 29 32
17 23 31 34 37 36 34 34 33 33 33 38 36 40 47 44 38 40 37 30 26 26 24 38 37 39 37 32 31 27 23 21 21 24 22 21 22 22 18 15 15 23 26
21 28 31 34 33 32 31 25 24 25 27 30 36 43 50 49 40 34 32 28 27 25 27 30 34 40 41 38 32 30 29 27 19 17 17 20 22 22 18 18 15 16 21
24 26 25 27 31 36 34 28 24 22 24 29 34 45 43 38 33 28 29 29 25 28 32 35 37 36 41 50 39 39 39 36 29 30 30 25 23 24 20 18 15 15 14
25 20 28 36 39 33 25 23 24 26 29 33 36 39 40 36 30 26 26 30 30 34 35 38 43 44 45 50 52 44 41 42 41 34 30 25 32 32 32 27 23 19 15
20 29 31 35 35 30 22 23 27 29 31 33 33 33 36 35 32 32 31 31 33 36 38 40 43 45 49 50 48 52 49 41 44 37 33 30 30 28 33 32 37 35 26
26 29 34 32 25 23 24 27 29 31 31 31 32 34 35 31 28 27 29 34 42 42 42 43 43 45 47 47 46 45 51 49 45 40 41 33 29 23 19 19 27 33 36
32 30 20 17 16 19 25 27 29 31 33 35 39 40 36 31 27 23 30 36 36 35 36 38 41 40 39 36 38 39 44 53 56 39 39 43 36 26 21 18 14 17 19
24 13 11 12 15 19 24 28 31 33 32 33 36 35 30 22 25 27 30 27 23 21 28 31 35 36 40 37 39 39 39 44 48 47 39 43 35 33 23 13 14 5 11
9 3 7 13 17 21 29 29 26 27 28 30 26 26 23 24 28 34 31 25 21 22 29 24 31 32 34 35 35 41 43 41 41 35 37 29 28 27 22 11 10 6 7
2 7 13 13 17 24 22 24 26 25 24 25 26 25 24 25 24 28 29 31 31 29 23 22 28 25 30 28 33 40 34 37 41 33 24 24 18 20 16 5 5 10 5
7 4 7 11 16 17 20 25 28 25 18 22 23 21 23 26 30 32 32 28 27 26 25 28 31 27 27 30 32 34 33 32 32 39 27 36 20 18 13 6 12 8 9
Wind_Direction_500mb
286 301 313 320 318 309 307 306 304 302 298 296 295 298 293 294 297 298 301 298 296 292 287 294 290 270 292 279 266 268 265 270 275 278 282 283 276 273 266 254 247 244 246
288 303 312 314 314 313 311 310 309 307 301 299 295 292 293 292 296 293 295 303 295 289 277 302 293 266 272 281 284 268 264 274 275 271 276 280 280 275 270 264 254 249 247
303 309 313 315 316 318 319 315 313 310 307 304 300 299 299 297 289 292 292 288 292 286 283 286 281 267 274 281 271 272 266 273 269 269 272 274 273 273 271 269 263 255 250
311 315 318 323 331 331 334 334 333 331 328 326 323 317 312 312 308 303 298 295 291 293 290 286 277 273 268 268 258 263 272 268 264 266 273 271 269 269 270 268 263 261 255
332 337 342 347 347 348 348 353 353 354 353 353 351 356 356 1 21 26 356 335 309 294 289 290 290 286 273 267 259 268 269 254 262 264 267 272 270 265 268 268 265 261 258
8 10 10 8 5 3 5 6 5 1 359 359 9 18 17 50 22 358 343 325 318 305 299 299 298 296 290 268 250 253 264 254 259 263 270 266 267 269 269 269 266 264 259
40 35 30 24 18 13 11 9 11 12 6 5 5 26 52 63 28 29 6 356 349 341 328 327 319 297 286 288 281 253 266 265 262 262 264 268 264 266 270 266 263 260 261
50 39 33 28 22 19 16 14 12 14 18 13 16 13 2 357 6 13 1 9 13 4 355 357 339 324 314 287 279 269 273 275 277 279 277 274 267 269 271 265 262 261 255
50 41 35 28 24 22 18 15 12 10 14 23 29 31 7 351 345 333 350 351 357 4 358 349 349 351 350 328 300 288 287 280 278 279 284 284 277 271 275 272 264 258 252
50 38 35 32 25 26 24 23 19 18 18 17 21 27 22 4 358 332 332 342 348 351 359 355 351 353 344 341 339 319 315 302 292 286 283 281 280 277 274 266 263 260 254
41 28 28 33 31 25 21 15 11 12 16 16 14 10 4 359 355 347 334 336 340 352 348 353 352 336 328 326 323 315 311 308 307 304 296 282 278 274 270 268 268 260 255
17 13 20 12 5 2 0 359 353 349 352 355 353 359 2 358 348 343 335 331 331 338 344 347 334 334 328 325 327 322 311 308 309 310 311 302 285 275 275 268 263 268 264
341 354 358 348 344 342 339 337 334 335 336 338 339 340 344 344 340 335 329 326 327 328 333 340 343 339 331 321 318 321 319 311 308 312 305 305 304 287 279 272 265 262 262
320 342 339 333 330 327 324 323 321 326 323 325 325 328 330 335 334 335 329 327 323 322 325 333 332 334 335 334 325 318 320 313 308 310 308 302 309 307 287 277 274 264 255
286 307 321 319 321 318 317 317 319 321 322 322 320 325 335 333 329 326 325 321 319 318 322 324 321 333 334 333 327 325 317 313 313 314 314 311 291 288 312 291 279 274 268
290 307 315 319 320 323 322 321 321 319 317 314 324 334 336 337 336 330 330 331 326 318 316 318 326 334 336 325 321 319 324 323 316 310 301 295 297 310 294 316 313 292 284
290 300 311 319 325 329 332 340 346 342 337 333 332 334 326 323 330 335 334 332 338 342 340 332 329 327 334 331 317 312 315 303 303 301 297 287 289 299 296 293 316 332 320
289 309 323 326 323 324 323 324 333 332 329 332 339 336 334 334 335 332 333 331 333 337 337 332 331 334 322 321 321 318 305 307 301 294 288 285 293 296 302 293 299 312 317
293 314 320 322 329 338 340 336 337 332 328 330 334 330 331 337 342 335 328 319 319 322 327 327 322 326 327 323 319 310 304 307 301 303 296 305 298 294 296 291 287 290 294
306 315 326 330 335 337 338 335 330 328 327 327 329 330 330 332 331 328 327 327 323 319 317 317 320 323 324 325 321 320 310 294 293 301 306 299 315 302 292 295 284 274 273
321 320 321 327 336 341 339 341 342 341 339 336 331 328 330 332 329 323 327 328 323 323 321 319 320 323 325 329 330 332 328 323 298 294 301 300 307 302 304 298 286 279 270
320 318 329 344 344 342 342 344 341 336 333 328 327 327 325 320 322 330 331 321 329 330 331 331 332 334 333 337 336 339 341 339 329 316 301 288 308 306 306 334 330 277 260
323 332 346 351 346 347 345 341 335 332 333 332 334 338 343 340 341 337 328 334 333 338 340 338 340 340 336 336 329 334 333 336 335 346 319 298 295 293 301 297 352 326 243
316 322 356 351 351 353 344 341 344 351 352 347 350 351 348 346 342 331 337 340 340 340 336 327 333 334 335 332 330 326 325 319 315 333 330 315 317 296 285 283 297 359 217
4 331 337 354 356 358 14 15 12 15 25 29 18 2 351 354 353 344 343 340 342 339 339 335 338 329 333 323 328 328 327 326 330 326 324 342 335 334 315 248 351 305 271
340 7 338 348 358 5 14 19 21 23 28 17 21 34 19 7 0 356 351 348 350 349 341 342 344 350 359 4 1 347 335 337 332 332 332 322 341 355 335 108 360 330 287
Wind_Speed_850mb
14 21 29 34 34 35 37 40 41 42 42 40 39 39 39 40 42 44 43 43 39 34 33 32 35 42 39 28 41 31 33 29 31 28 27 25 23 24 26 29 31 33 33
20 26 33 38 39 41 46 48 50 49 47 48 49 50 51 46 44 42 41 41 35 30 31 27 31 34 33 44 41 34 32 29 34 32 31 31 28 25 27 29 32 33 33
27 35 40 43 44 42 39 38 38 40 42 43 43 43 43 38 40 43 45 44 38 36 37 36 26 21 29 34 35 35 38 38 38 35 32 35 36 31 29 29 31 33 35
34 37 36 32 30 31 32 34 35 34 34 35 35 32 32 29 24 24 26 27 28 29 31 35 41 40 40 42 40 43 49 47 44 38 36 37 41 38 36 34 33 32 35
22 23 25 26 28 31 33 34 35 37 38 34 30 24 15 14 12 15 16 15 14 16 23 23 29 34 37 40 45 40 38 39 40 46 40 41 43 40 42 40 39 35 35
21 24 25 26 28 31 32 33 34 36 38 36 32 15 11 16 17 18 20 22 25 26 24 26 25 27 26 30 36 29 30 41 46 45 44 45 43 42 43 44 44 41 38
23 23 27 29 33 35 36 36 37 41 43 43 35 24 15 15 18 24 26 24 25 27 27 23 21 25 27 27 27 35 32 31 34 41 41 39 40 42 42 44 47 45 44
27 28 30 31 31 31 32 34 39 41 42 45 45 28 21 10 23 23 30 32 30 28 23 21 19 21 20 25 26 26 29 30 33 36 36 38 37 37 40 46 47 46 47
26 28 30 32 32 33 35 38 41 43 43 39 40 33 18 21 49 28 31 35 35 32 26 22 22 22 21 21 26 34 37 38 37 40 44 43 41 37 37 39 46 49 50
24 26 28 30 32 34 38 41 42 46 44 43 40 29 21 27 32 32 51 45 42 37 30 25 24 20 18 16 15 19 26 31 40 46 48 49 46 45 43 43 45 49 51
20 21 22 24 25 27 31 32 35 38 38 35 38 41 39 34 32 34 50 62 51 46 36 31 29 23 22 22 21 19 21 24 27 31 35 42 44 45 43 44 46 49 50
16 18 16 18 23 27 30 32 35 36 35 34 32 33 35 39 42 39 42 48 53 51 46 39 32 33 30 29 28 31 30 31 30 31 31 33 34 40 42 44 43 39 42
12 17 16 20 26 29 30 31 33 36 38 36 31 34 37 40 40 41 41 46 51 55 51 48 44 41 40 39 36 35 33 35 32 32 30 30 29 29 30 35 39 39 39
14 14 18 24 30 34 35 34 34 33 36 25 33 37 43 41 38 40 39 40 49 48 51 55 47 47 49 47 42 38 32 30 32 32 29 25 23 23 25 27 30 30 40
13 17 23 28 32 33 37 34 36 32 28 35 37 41 40 36 42 44 42 35 32 32 47 47 49 43 43 42 36 33 31 29 31 30 26 20 23 24 20 19 23 29 32
17 23 31 34 37 36 34 34 33 33 33 38 36 40 47 44 38 40 37 30 26 26 24 38 37 39 37 32 31 27 23 21 21 24 22 21 22 22 18 15 15 23 26
21 28 31 34 33 32 31 25 24 25 27 30 36 43 50 49 40 34 32 28 27 25 27 30 34 40 41 38 32 30 29 27 19 17 17 20 22 22 18 18 15 16 21
24 26 25 27 31 36 34 28 24 22 24 29 34 45 43 38 33 28 29 29 25 28 32 35 37 36 41 50 39 39 39 36 29 30 30 25 23 24 20 18 15 15 14
25 20 28 36 39 33 25 23 24 26 29 33 36 39 40 36 30 26 26 30 30 34 35 38 43 44 45 50 52 44 41 42 41 34 30 25 32 32 32 27 23 19 15
20 29 31 35 35 30 22 23 27 29 31 33 33 33 36 35 32 32 31 31 33 36 38 40 43 45 49 50 48 52 49 41 44 37 33 30 30 28 33 32 37 35 26
26 29 34 32 25 23 24 27 29 31 31 31 32 34 35 31 28 27 29 34 42 42 42 43 43 45 47 47 46 45 51 49 45 40 41 33 29 23 19 19 27 33 36
32 30 20 17 16 19 25 27 29 31 33 35 39 40 36 31 27 23 30 36 36 35 36 38 41 40 39 36 38 39 44 53 56 39 39 43 36 26 21 18 14 17 19
24 13 11 12 15 19 24 28 31 33 32 33 36 35 30 22 25 27 30 27 23 21 28 31 35 36 40 37 39 39 39 44 48 47 39 43 35 33 23 13 14 5 11
9 3 7 13 17 21 29 29 26 27 28 30 26 26 23 24 28 34 31 25 21 22 29 24 31 32 34 35 35 41 43 41 41 35 37 29 28 27 22 11 10 6 7
2 7 13 13 17 24 22 24 26 25 24 25 26 25 24 25 24 28 29 31 31 29 23 22 28 25 30 28 33 40 34 37 41 33 24 24 18 20 16 5 5 10 5
7 4 7 11 16 17 20 25 28 25 18 22 23 21 23 26 30 32 32 28 27 26 25 28 31 27 27 30 32 34 33 32 32 39 27 36 20 18 13 6 12 8 9
Wind_Direction_850mb
286 301 313 320 318 309 307 306 304 302 298 296 295 298 293 294 297 298 301 298 296 292 287 294 290 270 292 279 266 268 265 270 275 278 282 283 276 273 266 254 247 244 246
288 303 312 314 314 313 311 310 309 307 301 299 295 292 293 292 296 293 295 303 295 289 277 302 293 266 272 281 284 268 264 274 275 271 276 280 280 275 270 264 254 249 247
303 309 313 315 316 318 319 315 313 310 307 304 300 299 299 297 289 292 292 288 292 286 283 286 281 267 274 281 271 272 266 273 269 269 272 274 273 273 271 269 263 255 250
311 315 318 323 331 331 334 334 333 331 328 326 323 317 312 312 308 303 298 295 291 293 290 286 277 273 268 268 258 263 272 268 264 266 273 271 269 269 270 268 263 261 255
332 337 342 347 347 348 348 353 353 354 353 353 351 356 356 1 21 26 356 335 309 294 289 290 290 286 273 267 259 268 269 254 262 264 267 272 270 265 268 268 265 261 258
8 10 10 8 5 3 5 6 5 1 359 359 9 18 17 50 22 358 343 325 318 305 299 299 298 296 290 268 250 253 264 254 259 263 270 266 267 269 269 269 266 264 259
40 35 30 24 18 13 11 9 11 12 6 5 5 26 52 63 28 29 6 356 349 341 328 327 319 297 286 288 281 253 266 265 262 262 264 268 264 266 270 266 263 260 261
50 39 33 28 22 19 16 14 12 14 18 13 16 13 2 357 6 13 1 9 13 4 355 357 339 324 314 287 279 269 273 275 277 279 277 274 267 269 271 265 262 261 255
50 41 35 28 24 22 18 15 12 10 14 23 29 31 7 351 345 333 350 351 357 4 358 349 349 351 350 328 300 288 287 280 278 279 284 284 277 271 275 272 264 258 252
50 38 35 32 25 26 24 23 19 18 18 17 21 27 22 4 358 332 332 342 348 351 359 355 351 353 344 341 339 319 315 302 292 286 283 281 280 277 274 266 263 260 254
41 28 28 33 31 25 21 15 11 12 16 16 14 10 4 359 355 347 334 336 340 352 348 353 352 336 328 326 323 315 311 308 307 304 296 282 278 274 270 268 268 260 255
17 13 20 12 5 2 0 359 353 349 352 355 353 359 2 358 348 343 335 331 331 338 344 347 334 334 328 325 327 322 311 308 309 310 311 302 285 275 275 268 263 268 264
341 354 358 348 344 342 339 337 334 335 336 338 339 340 344 344 340 335 329 326 327 328 333 340 343 339 331 321 318 321 319 311 308 312 305 305 304 287 279 272 265 262 262
320 342 339 333 330 327 324 323 321 326 323 325 325 328 330 335 334 335 329 327 323 322 325 333 332 334 335 334 325 318 320 313 308 310 308 302 309 307 287 277 274 264 255
286 307 321 319 321 318 317 317 319 321 322 322 320 325 335 333 329 326 325 321 319 318 322 324 321 333 334 333 327 325 317 313 313 314 314 311 291 288 312 291 279 274 268
290 307 315 319 320 323 322 321 321 319 317 314 324 334 336 337 336 330 330 331 326 318 316 318 326 334 336 325 321 319 324 323 316 310 301 295 297 310 294 316 313 292 284
290 300 311 319 325 329 332 340 346 342 337 333 332 334 326 323 330 335 334 332 338 342 340 332 329 327 334 331 317 312 315 303 303 301 297 287 289 299 296 293 316 332 320
289 309 323 326 323 324 323 324 333 332 329 332 339 336 334 334 335 332 333 331 333 337 337 332 331 334 322 321 321 318 305 307 301 294 288 285 293 296 302 293 299 312 317
293 314 320 322 329 338 340 336 337 332 328 330 334 330 331 337 342 335 328 319 319 322 327 327 322 326 327 323 319 310 304 307 301 303 296 305 298 294 296 291 287 290 294
306 315 326 330 335 337 338 335 330 328 327 327 329 330 330 332 331 328 327 327 323 319 317 317 320 323 324 325 321 320 310 294 293 301 306 299 315 302 292 295 284 274 273
321 320 321 327 336 341 339 341 342 341 339 336 331 328 330 332 329 323 327 328 323 323 321 319 320 323 325 329 330 332 328 323 298 294 301 300 307 302 304 298 286 279 270
320 318 329 344 344 342 342 344 341 336 333 328 327 327 325 320 322 330 331 321 329 330 331 331 332 334 333 337 336 339 341 339 329 316 301 288 308 306 306 334 330 277 260
323 332 346 351 346 347 345 341 335 332 333 332 334 338 343 340 341 337 328 334 333 338 340 338 340 340 336 336 329 334 333 336 335 346 319 298 295 293 301 297 352 326 243
316 322 356 351 351 353 344 341 344 351 352 347 350 351 348 346 342 331 337 340 340 340 336 327 333 334 335 332 330 326 325 319 315 333 330 315 317 296 285 283 297 359 217
4 331 337 354 356 358 14 15 12 15 25 29 18 2 351 354 353 344 343 340 342 339 339 335 338 329 333 323 328 328 327 326 330 326 324 342 335 334 315 248 351 305 271
340 7 338 348 358 5 14 19 21 23 28 17 21 34 19 7 0 356 351 348 350 349 341 342 344 350 359 4 1 347 335 337 332 332 332 322 341 355 335 108 360 330 287